[[{"header":{"parameterUnit":"m.s-1","parameterCategory":1,"la1":30.2991,"la2":30.254,"lo1":-89.0895,"lo2":-89.0444,"dx":0.0017,"dy":0.0017,"nx":28,"ny":28,"refTime":"2022-12-02T09:00:00:Z","depth":0,"parameterNumber":2,"parameterNumberName":"U-component_of_WINDS"},"data":[0,0,0,0,0,0,0,0,0,0,0,0,0,0,0,0,0,0,0,0,0,0,0,0,0,0,0,0,0,0,0,0,0,0,0,0,0,0,0,0,0,0,0,0,0,0,0,0,0,0,0,0,0,0,0,0,0,0,-3.831,-3.8311,0,-3.8432,-3.8434,-3.8435,-3.8363,-3.836,-3.8356,-3.8353,-3.8487,-3.8493,-3.85,0,0,0,0,0,0,0,0,0,0,0,0,0,-3.8021,-3.8027,-3.8309,-3.8311,-3.8313,-3.8432,-3.8434,-3.8436,-3.8364,-3.836,-3.8355,-3.8351,-3.8484,-3.8492,-3.8501,0,0,0,0,0,0,0,0,0,0,0,0,0,-3.8146,-3.8029,-3.8309,-3.8291,-3.8291,-3.8432,-3.8434,-3.8436,-3.8365,-3.836,-3.8354,-3.8349,-3.8482,-3.8492,-3.8502,-3.867,0,0,-3.8533,-3.8537,0,0,0,0,0,0,0,0,-3.8139,-3.8156,-3.8292,-3.8293,-3.8292,-3.8377,-3.8381,-3.8515,-3.8366,-3.8337,-3.8353,-3.8347,-3.8455,-3.8467,-3.8502,-3.8676,-3.8682,-3.8534,-3.854,-3.8544,-3.8547,0,0,0,0,0,0,0,-3.813,-3.8151,-3.8358,-3.8294,-3.8294,-3.828,-3.8291,-3.8406,-3.8424,-3.8339,-3.8334,-3.8349,-3.8454,-3.8492,-3.8504,-3.8684,-3.8534,-3.8543,-3.8549,-3.8553,-3.9006,-3.9011,0,0,0,0,0,0,-3.8122,-3.8144,-3.8354,-3.8362,-3.8201,-3.8289,-3.8302,-3.8355,-3.8423,-3.8428,-3.8354,-3.8345,-3.8477,-3.8493,-3.8509,-3.8711,-3.8544,-3.8554,-3.856,-3.9,-3.9007,-3.9014,0,0,0,0,0,0,-3.8116,-3.8141,-3.8349,-3.8252,-3.8277,-3.8299,-3.836,-3.836,-3.8398,-3.8433,-3.8437,-3.8389,-3.8474,-3.8494,-3.8631,-3.8715,-3.8559,-3.8568,-3.8993,-3.9002,-3.901,-3.9117,0,0,0,0,0,0,-3.8108,-3.8139,-3.8201,-3.8254,-3.8282,-3.8467,-3.8365,-3.8367,-3.8415,-3.8406,-3.8467,-3.8473,-3.8471,-3.8616,-3.8641,-3.8726,-3.8576,-3.8986,-3.8997,-3.9008,-3.9106,-3.9129,-3.9148,0,0,0,0,0,-3.8098,-3.8228,-3.8205,-3.8231,-3.836,-3.8472,-3.8488,-3.8482,-3.8422,-3.8486,-3.8509,-3.8471,-3.8702,-3.863,-3.8658,-3.8748,-3.898,-3.8994,-3.9007,-3.9097,-3.9124,-3.9147,0,0,0,0,0,0,-3.8187,-3.8234,-3.8209,-3.836,-3.8412,-3.8459,-3.8539,-3.8511,-3.8583,-3.8571,-3.8562,-3.8577,-3.8719,-3.8747,-3.8666,-3.8916,-3.8832,-3.8852,-3.8892,-3.8918,-3.8938,-3.8928,-3.8584,0,0,0,0,0,-3.8224,-3.8308,-3.8346,-3.8475,-3.8503,-3.8517,-3.8565,-3.8556,-3.861,-3.8633,-3.8665,-3.8723,-3.8808,-3.8865,-3.8945,-3.9111,-3.9124,-3.9187,-3.9207,-3.9224,-3.9241,-3.9332,-3.9361,-3.9057,-3.9057,-3.9057,0,0,-3.8302,-3.8338,-3.8392,-3.8494,-3.8533,-3.8623,-3.8536,-3.8634,-3.8702,-3.8649,-3.8778,-3.8805,-3.8868,-3.902,-3.9089,-3.9048,-3.9328,-3.9241,-3.9254,-3.9262,-3.9349,-3.9378,-3.9403,-3.9066,-3.9064,-3.9063,0,0,-3.8489,-3.8524,-3.8636,-3.8677,-3.8737,-3.8746,-3.8774,-3.8826,-3.8841,-3.897,-3.8933,-3.9015,-3.9162,-3.9209,-3.9252,-3.946,-3.9428,-3.9487,-3.9595,-3.9684,-3.9708,-3.9729,-3.9804,-3.9831,-3.9504,-3.9504,-3.9504,0,-3.8578,-3.8709,-3.8698,-3.8799,-3.8846,-3.8801,-3.8916,-3.8957,-3.9042,-3.9077,-3.903,-3.9214,-3.9254,-3.9417,-3.9467,-3.9504,-3.9536,-3.9479,-3.9705,-3.9726,-3.9746,-3.9818,-3.9846,-3.9511,-3.951,-3.9509,-3.9509,0,-3.8817,-3.8909,-3.8993,-3.9073,-3.913,-3.9238,-3.9246,-3.9305,-3.9292,-3.9307,-3.9441,-3.9487,-3.9577,-3.9615,-3.9604,-3.9778,-3.9751,-3.9705,-3.9621,-3.9782,-3.9849,-3.9876,-3.952,-3.9518,-3.9516,-3.9514,0,0,-3.9062,-3.9135,-3.9166,-3.9203,-3.9267,-3.9339,-3.9447,-3.9533,-3.9584,-3.9646,-3.9737,-3.9864,-3.9822,-3.9871,-3.9865,-3.9944,-4.0107,-3.9888,-3.989,-3.9927,-4.0303,-4.0336,-4.0368,-4.0086,-4.0091,-4.0095,-4.0298,0,-3.9253,-3.9437,-3.9431,-3.9604,-3.969,-3.9649,-3.9743,-3.9795,-3.9813,-3.9891,-3.9912,-4.0001,-3.9939,-3.9969,-4.0045,-4.007,-4.0182,-4.0056,-4.0173,-4.0177,-4.0157,-4.0403,-4.0438,-4.0626,-4.0324,-4.0328,-4.0331,0,-3.9499,-3.9566,-3.9747,-3.98,-3.9836,-3.992,-3.9999,-4.0073,-4.0132,-4.014,-4.0196,-4.0178,-4.0291,-4.0204,-4.036,-4.0275,-4.0323,-4.0344,-4.0351,-4.0361,-4.0263,-4.042,-4.0686,-4.0714,-4.0372,-4.0369,-4.0366,0,-3.966,-3.9796,-3.9922,-3.9955,-4.0019,-4.008,-4.011,-4.0164,-4.0216,-4.0287,-4.0321,-4.0405,-4.0451,-4.0518,-4.0525,-4.0461,-4.0683,-4.0596,-4.0694,-4.0694,-4.0741,-4.0738,-4.1019,-4.0774,-4.0773,-4.0773,-4.0772,0,-3.9873,-3.9986,-3.9995,-4.0072,-4.0198,-4.0192,-4.0318,-4.0343,-4.0392,-4.0476,-4.0448,-4.0528,-4.0531,-4.0615,-4.0621,-4.0751,-4.0772,-4.0783,-4.0783,-4.0785,-4.0784,-4.0816,-4.0803,-4.078,-4.0779,-4.0777,-4.0776,0,-4.0073,-4.0084,-4.0218,-4.0269,-4.0284,-4.0375,-4.0419,-4.0495,-4.0511,-4.0618,-4.0643,-4.0669,-4.0765,-4.0779,-4.0893,-4.0897,-4.1052,-4.1039,-4.1031,-4.1029,-4.1126,-4.1117,-4.1437,-4.1479,-4.1207,-4.1209,-4.1212,0,-4.0208,-4.0293,-4.0352,-4.0405,-4.0438,-4.0524,-4.0577,-4.0577,-4.0634,-4.0709,-4.0776,-4.0869,-4.0944,-4.1101,-4.1132,-4.122,-4.1208,-4.1315,-4.1221,-4.1221,-4.121,-4.1204,-4.1214,-4.1332,-4.1335,-4.1338,-4.134,0,-4.0446,-4.0447,-4.0523,-4.0603,-4.0666,-4.0729,-4.0788,-4.0835,-4.0842,-4.0908,-4.1005,-4.1063,-4.1179,-4.1273,-4.136,-4.1395,-4.137,-4.1369,-4.1396,-4.1398,-4.139,-4.1396,-4.108,-4.1361,-4.1359,-4.1358,-4.1357,-4.1356,-4.0617,-4.0691,-4.0745,-4.0831,-4.0876,-4.0932,-4.1006,-4.1031,-4.1111,-4.1203,-4.1199,-4.1307,-4.1367,-4.1481,-4.1522,-4.1608,-4.1574,-4.1613,-4.1623,-4.1632,-4.1642,-4.1377,-4.1624,-4.1624,-4.1623,-4.1623,-4.1622,0,-4.0853,-4.0886,-4.0966,-4.1049,-4.1118,-4.1087,-4.1151,-4.1212,-4.1306,-4.1363,-4.1436,-4.155,-4.1642,-4.168,-4.1771,-4.1833,-4.1824,-4.1857,-4.1852,-4.1861,-4.1668,-4.1635,-4.1863,-4.1863,-4.1863,-4.1863,-4.1863,-4.1863,-4.0984,-4.1108,-4.1117,-4.1264,-4.1297,-4.1399,-4.1439,-4.1493,-4.1538,-4.1665,-4.174,-4.1764,-4.1815,-4.1909,-4.1993,-4.2003,-4.2038,-4.2076,-4.208,-4.1899,-4.1874,-4.1851,-4.182,-4.2083,-4.2084,-4.2266,-4.2268,-4.2269]},{"header":{"parameterUnit":"m.s-1","parameterCategory":1,"la1":30.2991,"la2":30.254,"lo1":-89.0895,"lo2":-89.0444,"dx":0.0017,"dy":0.0017,"nx":28,"ny":28,"refTime":"2022-12-02T09:00:00:Z","depth":0,"parameterNumber":3,"parameterNumberName":"V-component_of_WINDS"},"data":[0,0,0,0,0,0,0,0,0,0,0,0,0,0,0,0,0,0,0,0,0,0,0,0,0,0,0,0,0,0,0,0,0,0,0,0,0,0,0,0,0,0,0,0,0,0,0,0,0,0,0,0,0,0,0,0,0,0,-0.4791,-0.4791,0,-0.4782,-0.4782,-0.4782,-0.4754,-0.4753,-0.4752,-0.4752,-0.4743,-0.4743,-0.4743,0,0,0,0,0,0,0,0,0,0,0,0,0,-0.478,-0.478,-0.4791,-0.4791,-0.4791,-0.4782,-0.4782,-0.4782,-0.4754,-0.4753,-0.4752,-0.4752,-0.4742,-0.4743,-0.4743,0,0,0,0,0,0,0,0,0,0,0,0,0,-0.478,-0.4781,-0.4791,-0.4775,-0.4774,-0.4783,-0.4782,-0.4782,-0.4754,-0.4753,-0.4752,-0.4751,-0.4742,-0.4743,-0.4743,-0.4766,0,0,-0.4745,-0.4745,0,0,0,0,0,0,0,0,-0.478,-0.478,-0.4778,-0.4777,-0.4775,-0.4768,-0.4775,-0.4777,-0.4754,-0.4762,-0.4752,-0.4751,-0.4752,-0.4751,-0.4752,-0.4765,-0.4765,-0.4745,-0.4745,-0.4746,-0.4746,0,0,0,0,0,0,0,-0.478,-0.478,-0.4787,-0.4778,-0.4776,-0.4768,-0.4767,-0.4775,-0.4762,-0.4761,-0.4759,-0.4758,-0.4751,-0.4752,-0.4752,-0.4765,-0.4745,-0.4745,-0.4746,-0.4746,-0.4794,-0.4795,0,0,0,0,0,0,-0.4782,-0.478,-0.4788,-0.4787,-0.4775,-0.4769,-0.4768,-0.4771,-0.4762,-0.476,-0.4759,-0.4757,-0.4751,-0.4751,-0.4751,-0.4776,-0.4746,-0.4746,-0.4746,-0.4793,-0.4795,-0.4796,0,0,0,0,0,0,-0.4782,-0.4783,-0.4788,-0.4783,-0.4783,-0.4771,-0.4774,-0.4772,-0.4772,-0.4761,-0.4758,-0.4762,-0.475,-0.475,-0.4762,-0.4775,-0.4746,-0.4747,-0.4792,-0.4794,-0.4795,-0.4826,0,0,0,0,0,0,-0.4782,-0.4783,-0.4792,-0.4784,-0.4784,-0.48,-0.4775,-0.4772,-0.4773,-0.4771,-0.4763,-0.4761,-0.475,-0.4761,-0.4763,-0.4775,-0.4747,-0.4791,-0.4793,-0.4795,-0.4824,-0.4828,-0.4832,0,0,0,0,0,-0.4782,-0.4801,-0.4793,-0.4794,-0.4795,-0.4801,-0.4801,-0.4788,-0.4775,-0.4783,-0.4775,-0.4761,-0.4774,-0.4763,-0.4764,-0.4777,-0.479,-0.4792,-0.4794,-0.4822,-0.4828,-0.4832,0,0,0,0,0,0,-0.4812,-0.48,-0.479,-0.4808,-0.4806,-0.4796,-0.4806,-0.4794,-0.4795,-0.4792,-0.4776,-0.4774,-0.4788,-0.4783,-0.4772,-0.4797,-0.4779,-0.4782,-0.48,-0.4805,-0.4809,-0.481,-0.4748,0,0,0,0,0,-0.4821,-0.4827,-0.4816,-0.4833,-0.4832,-0.4819,-0.4822,-0.4812,-0.4808,-0.4807,-0.48,-0.4797,-0.48,-0.4802,-0.4804,-0.4823,-0.482,-0.4832,-0.4837,-0.484,-0.4842,-0.4851,-0.4856,-0.4803,-0.4803,-0.4803,0,0,-0.4839,-0.4833,-0.4838,-0.4839,-0.4836,-0.4842,-0.4819,-0.4827,-0.4831,-0.4808,-0.4818,-0.4813,-0.4808,-0.4823,-0.4829,-0.482,-0.4856,-0.4843,-0.4846,-0.4846,-0.4853,-0.4858,-0.4863,-0.4804,-0.4804,-0.4804,0,0,-0.4875,-0.4872,-0.4885,-0.4882,-0.4877,-0.4869,-0.4872,-0.4863,-0.4859,-0.4869,-0.4852,-0.4856,-0.4862,-0.4859,-0.4858,-0.4891,-0.4878,-0.4893,-0.4915,-0.4923,-0.4927,-0.4931,-0.4942,-0.4946,-0.4895,-0.4895,-0.4895,0,-0.4899,-0.4908,-0.4893,-0.4902,-0.4902,-0.4881,-0.4894,-0.4891,-0.4888,-0.4888,-0.4877,-0.4883,-0.4879,-0.4892,-0.49,-0.49,-0.4903,-0.4894,-0.4928,-0.4931,-0.4934,-0.4945,-0.4949,-0.4897,-0.4897,-0.4896,-0.4896,0,-0.4936,-0.4942,-0.4953,-0.495,-0.4951,-0.4962,-0.4948,-0.4951,-0.494,-0.4932,-0.4942,-0.4936,-0.4936,-0.4938,-0.4928,-0.495,-0.4944,-0.4931,-0.4912,-0.4941,-0.4951,-0.4955,-0.4899,-0.4899,-0.4898,-0.4898,0,0,-0.4992,-0.498,-0.4984,-0.4981,-0.4974,-0.4978,-0.4987,-0.4987,-0.499,-0.4987,-0.4994,-0.4998,-0.4986,-0.4985,-0.4974,-0.4982,-0.5007,-0.4967,-0.4967,-0.4975,-0.5029,-0.5039,-0.5044,-0.4998,-0.4999,-0.4999,-0.5029,0,-0.5026,-0.5041,-0.5027,-0.5045,-0.505,-0.5029,-0.5037,-0.5033,-0.5025,-0.5028,-0.5019,-0.5022,-0.5006,-0.5005,-0.5012,-0.5003,-0.5018,-0.5,-0.5003,-0.5004,-0.5005,-0.5049,-0.5059,-0.5088,-0.5033,-0.5034,-0.5034,0,-0.5068,-0.5067,-0.5085,-0.5075,-0.5076,-0.5084,-0.5082,-0.5085,-0.5079,-0.5073,-0.5071,-0.5058,-0.5065,-0.5047,-0.5056,-0.5044,-0.5044,-0.504,-0.5041,-0.504,-0.5021,-0.5049,-0.5097,-0.5101,-0.504,-0.5039,-0.5039,0,-0.5106,-0.5109,-0.512,-0.5119,-0.5108,-0.5113,-0.5109,-0.5102,-0.5102,-0.51,-0.51,-0.5099,-0.5099,-0.5098,-0.5084,-0.5072,-0.5094,-0.5075,-0.5089,-0.5089,-0.5094,-0.5094,-0.5142,-0.5095,-0.5095,-0.5095,-0.5095,0,-0.5145,-0.5156,-0.5137,-0.5143,-0.5155,-0.5139,-0.5151,-0.5144,-0.5138,-0.5143,-0.5125,-0.5129,-0.5111,-0.5113,-0.5102,-0.5111,-0.5111,-0.5106,-0.5103,-0.5107,-0.5108,-0.5107,-0.5104,-0.5096,-0.5096,-0.5096,-0.5096,0,-0.519,-0.5177,-0.5187,-0.5176,-0.5173,-0.5182,-0.5172,-0.5177,-0.5168,-0.5173,-0.5174,-0.5159,-0.5161,-0.5147,-0.5146,-0.5138,-0.5152,-0.5145,-0.5154,-0.5152,-0.5166,-0.5164,-0.5215,-0.522,-0.517,-0.5171,-0.5171,0,-0.5215,-0.5223,-0.5212,-0.5214,-0.521,-0.5213,-0.5213,-0.5197,-0.5198,-0.5191,-0.5197,-0.5197,-0.5196,-0.5199,-0.5188,-0.5187,-0.518,-0.5198,-0.518,-0.5184,-0.518,-0.5179,-0.518,-0.5202,-0.5202,-0.5203,-0.5203,0,-0.5262,-0.5255,-0.5256,-0.5254,-0.5254,-0.5252,-0.5249,-0.5251,-0.5234,-0.5235,-0.5236,-0.5236,-0.5234,-0.5234,-0.523,-0.5225,-0.5211,-0.5209,-0.5212,-0.5216,-0.5221,-0.5218,-0.5164,-0.5208,-0.5207,-0.5207,-0.5207,-0.5207,-0.5297,-0.5303,-0.5296,-0.5297,-0.5293,-0.529,-0.5294,-0.5285,-0.5285,-0.5283,-0.5273,-0.5276,-0.5269,-0.5262,-0.5258,-0.526,-0.5251,-0.5255,-0.5256,-0.5258,-0.526,-0.5221,-0.5259,-0.5259,-0.5259,-0.5258,-0.5258,0,-0.5342,-0.5336,-0.5337,-0.5333,-0.5334,-0.532,-0.5316,-0.5317,-0.532,-0.5314,-0.5313,-0.5314,-0.5313,-0.5302,-0.53,-0.5303,-0.5297,-0.5303,-0.5303,-0.5301,-0.5268,-0.5266,-0.5308,-0.5308,-0.5308,-0.5308,-0.5308,-0.5308,-0.5365,-0.5374,-0.5366,-0.5372,-0.5366,-0.5369,-0.5367,-0.5364,-0.5359,-0.5361,-0.536,-0.5353,-0.5345,-0.5342,-0.534,-0.5337,-0.5336,-0.5345,-0.534,-0.5309,-0.5304,-0.5299,-0.5297,-0.5345,-0.5345,-0.5372,-0.5373,-0.5373]}]]